Regional Weather Roundup
Issued by NWS

Home | Current Version | Previous Version | Text Only | Print | Product List | Glossary Off
Versions: 1 2 3 4 5 6 7 8 9 10 11 12 13 14 15 16 17 18 19 20 21 22 23 24 25 26 27 28 29 30 31 32 33 34 35 36 37 38 39 40 41 42 43 44 45 46 47 48 49 50

000
ASUS43 KLOT 230706
RWRIL

ILLINOIS REGIONAL WEATHER ROUNDUP
NATIONAL WEATHER SERVICE CHICAGO/ROMEOVILLE IL
200 AM CDT WED APR 23 2014

NOTE: "FAIR" INDICATES FEW OR NO CLOUDS BELOW 12,000 FEET WITH NO
SIGNIFICANT WEATHER AND/OR OBSTRUCTIONS TO VISIBILITY.

* THESE STATIONS ARE NOT UNDER NWS QUALITY CONTROL. THEY ALSO MAY NOT
  REPORT WEATHER SUCH AS PRECIPITATION OR FOG.

ILZ001-002-007-009-015-016-024-230800-
NORTHWEST ILLINOIS

CITY           SKY/WX    TMP DP  RH WIND       PRES   REMARKS
MOLINE         CLEAR     41  32  70 E10       30.09R
STERLING*      CLEAR     36  30  80 E5        30.11R WCI  32
SAVANNA*       CLEAR     38  31  75 E3        30.11S
$$

ILZ003-004-008-010-011-017-018-230800-
NORTH CENTRAL ILLINOIS

CITY           SKY/WX    TMP DP  RH WIND       PRES   REMARKS
ROCKFORD       CLEAR     37  27  67 NE3       30.13R
FREEPORT*      CLEAR     33  29  83 E5        30.13S WCI  29
ROCHELLE*      CLEAR     35  28  76 NE5       30.11S WCI  31
DE KALB*       CLEAR     32  25  76 NE6       30.11S WCI  26
PERU*          CLEAR     38  32  79 CALM      30.11R
$$

ILZ005-006-012>014-019>023-230800-
NORTHEAST ILLINOIS

CITY           SKY/WX    TMP DP  RH WIND       PRES   REMARKS
CHICAGO-OHARE  CLEAR     38  27  64 NE9       30.11R WCI  31
CHICAGO-MIDWAY CLEAR     39  29  67 N14       30.11R WCI  31
AURORA         CLEAR     32  25  75 N5        30.11R WCI  27
LANSING*       CLEAR     38  29  71 N7        30.10S WCI  32
JOLIET*        CLEAR     37  28  69 NE7       30.11S WCI  32
WAUKEGAN       CLEAR     33  28  81 N3        30.12R
DUPAGE AIRPORT CLEAR     32  25  75 NE8       30.10S WCI  25
KANKAKEE*      CLEAR     36  31  82 N5        30.10R WCI  32
WHEELING       CLEAR     37  29  72 NE7       30.13R WCI  32
MORRIS*        CLEAR     36  28  73 N3        30.10S
NORTHERLY ISL    N/A     38  30  73 N18         N/A  WCI  28
$$

LMZ740>746-230800-
SOUTHERN LAKE MICHIGAN

STATION/POSITION SKY/WX   TEMP    WIND        PRES    VSBY  WAVE
                          AIR SEA DIR/SP/G                  HT/PER
                          (F)     (DEG/KT/KT) (MB)    (MI)  (FT/S)
WAUKEGAN HARBOR            37      30/ 12/ 15 1021.3R
HARRISON CRIB              37      10/ 15/ 20   N/A
BURNHAM HARBOR             38     360/ 15/ 16   N/A
CALUMET HARBOR             38     360/ 12/ 17 1020.1F
MICHIGAN CITY              38     340/ 14/ 16   N/A
$$

ILZ025>027-034>036-040-047-049-050-058-095>099-230800-
WEST-CENTRAL ILLINOIS

CITY           SKY/WX    TMP DP  RH WIND       PRES   REMARKS
QUINCY         PTCLDY    45  31  58 NE6       30.05R
GALESBURG*     CLEAR     42  34  75 E13       30.07S
MACOMB*        PTCLDY    39  30  69 NE5       30.08S
JACKSONVILLE*  PTCLDY    47  31  53 NE9       30.06S
PITTSFIELD*    PTCLDY    50  29  45 N5        30.06R
$$

ILZ028>032-037-038-041>044-048-051>054-059>061-230800-
CENTRAL ILLINOIS

CITY           SKY/WX    TMP DP  RH WIND       PRES   REMARKS
PONTIAC        CLEAR     37  30  75 CALM      30.10S
BLOOMINGTON    CLEAR     35  28  76 NE6       30.10R WCI  30
DECATUR        CLEAR     41  32  70 NE13      30.08R
PEORIA         CLEAR     42  29  59 E14       30.09S
LACON*         CLEAR     35  30  83 CALM      30.10S
LINCOLN*       CLEAR     41  32  69 E6        30.09R
SPRINGFIELD    CLEAR     45  33  63 E13       30.07R
TAYLORVILLE    CLEAR     45  32  61 E13G18    30.05S
$$

ILZ033-039-045-046-055>057-062-063-230800-
EAST-CENTRAL ILLINOIS

CITY           SKY/WX    TMP DP  RH WIND       PRES   REMARKS
CHAMPAIGN      CLEAR     40  29  64 NE13      30.07R
RANTOUL*       CLEAR     41  29  62 NE8       30.09R
MATTOON        CLEAR     43  32  65 NE8       30.06R
PARIS*         CLEAR     42  33  68 NE9       30.07S
$$

ILZ079-100>102-230800-
SOUTHWEST ILLINOIS

CITY           SKY/WX    TMP DP  RH WIND       PRES   REMARKS
ALTON          CLEAR     47  36  66 N3        30.04R
BELLEVILLE     CLEAR     48  34  58 N6        30.02R
CAHOKIA*       CLEAR     44  40  85 SE3       30.03R
SPARTA*        CLEAR     50  36  57 N3        30.03R
$$

ILZ064>066-069>071-074>076-080>082-084>086-088>090-092>094-230800-
SOUTH-CENTRAL ILLINOIS

CITY           SKY/WX    TMP DP  RH WIND       PRES   REMARKS
CARBONDALE     CLEAR     46  41  82 NW5       30.01S
CAIRO*         CLEAR     50  43  77 CALM      30.00S
MARION         CLEAR     48  39  71 CALM      30.01S
MT. VERNON     CLEAR     43  30  61 N5        30.02S
CENTRALIA*       N/A     49  34  56 CALM      30.02S
SALEM*         CLEAR     51  35  53 NE3       30.03S
METROPOLIS*    CLEAR     49  38  66 CALM      29.98S
$$

ILZ067-068-072-073-078-083-087-091-230800-
SOUTHEAST ILLINOIS

CITY           SKY/WX    TMP DP  RH WIND       PRES   REMARKS
FAIRFIELD*     CLEAR     50  37  62 N5        30.01S
HARRISBURG*    CLEAR     51  35  54 N7        30.01S
ROBINSON*      CLEAR     48  38  70 NE10      30.05R
CARMI*         CLEAR     47  41  77 NW5       30.00S
$$

ABBREVIATIONS USED IN REMARKS
   TC - TEMPERATURE IN CELSIUS
  WCI - WIND CHILL INDEX
   HX - HEAT INDEX
  VSB - VISIBILITY
$$




USA.gov is the U.S. government's official web portal to all federal, state and local government web resources and services.